• Join FlightAware (Why Join?)
  • Login
  • US Flag GB Flag 
05:22 EDT


 

Airport Tracker/Info


-or-


 

Live Flight TrackerFlight Track Log ✈ UAL4274 ✈ 14-Apr-2013 ✈ KCLT - KIAH

Flight Track Log - Related Links

Times and Time Zones

All times are in EDT time to prevent confusion due to time zone crossing. See the UAL4274 flight status page for this flight to view local times or setup timezone preferences in your user account.

Time Position Orientation Groundspeed Altitude Reporting Facility
EDT Latitude Longitude Course Direction KTS MPH feet Rate Location/Type
06:14 35.1911 -80.9508 251° West 171 197 1,400  Level Atlanta Center
06:15 35.1778 -80.9489 173° South 173 199 2,000 1,800 Climbing FAA TRACON SMA TRACON (SMA)
06:15 35.1633 -80.9475 176° South 172 198 2,600 2,280 Climbing FAA TRACON SMA TRACON (SMA)
06:15 35.1425 -80.9511 188° South 205 236 3,500 1,920 Climbing FAA TRACON SMA TRACON (SMA)
06:16 35.1308 -80.9667 227° Southwest 223 257 3,900 720 Climbing FAA TRACON SMA TRACON (SMA)
06:16 35.1292 -80.9908 265° West 240 276 4,000 1,320 Climbing FAA TRACON SMA TRACON (SMA)
06:16 35.1275 -81.0233 266° West 250 288 4,800 1,920 Climbing FAA TRACON SMA TRACON (SMA)
06:17 35.1219 -81.0492 255° West 265 305 5,300 1,620 Climbing FAA TRACON SMA TRACON (SMA)
06:17 35.1181 -81.0761 260° West 261 300 5,900 2,340 Climbing FAA TRACON SMA TRACON (SMA)
06:17 35.1128 -81.1094 259° West 260 299 6,900 2,460 Climbing FAA TRACON SMA TRACON (SMA)
06:18 35.2061 -81.2426 199° South  Level FlightAware Approximate
06:18 35.1092 -81.1361 261° West 260 299 7,500  Level FAA TRACON SMA TRACON (SMA)
06:18 35.1044 -81.1631 258° West 261 300 8,000 2,100 Climbing FAA TRACON SMA TRACON (SMA)
06:18 35.0997 -81.1972 260° West 264 304 8,900 2,400 Climbing FAA TRACON SMA TRACON (SMA)
06:19 35.1081 -81.2771 192° South  Level FlightAware Approximate
06:19 35.0953 -81.2242 259° West 263 303 9,600  Level FAA TRACON SMA TRACON (SMA)
06:19 35.0914 -81.2511 260° West 263 303 10,200 1,380 Climbing FAA TRACON SMA TRACON (SMA)
06:19 35.0867 -81.2858 261° West 267 307 10,500 600 Climbing FAA TRACON SMA TRACON (SMA)
06:20 35.0580 -81.3720 251° West  Level FlightAware Approximate
06:20 35.0794 -81.3156 253° West 301 346 10,600  Level FAA TRACON SMA TRACON (SMA)
06:20 35.0703 -81.3453 249° West 309 356 10,800 600 Climbing FAA TRACON SMA TRACON (SMA)
06:20 35.0589 -81.3839 250° West 319 367 11,000 540 Climbing FAA TRACON SMA TRACON (SMA)
06:21 35.0489 -81.4156 249° West 323 372 11,200 900 Climbing FAA TRACON SMA TRACON (SMA)
06:21 35.0372 -81.4564 251° West 329 379 11,600 1,200 Climbing FAA TRACON SMA TRACON (SMA)
06:21 35.0275 -81.4892 250° West 332 382 12,000 1,200 Climbing FAA TRACON SMA TRACON (SMA)
06:22 35.0178 -81.5219 250° West 333 383 12,400 1,200 Climbing FAA TRACON SMA TRACON (SMA)
06:22 35.0075 -81.5547 249° West 334 384 12,800 1,320 Climbing FAA TRACON SMA TRACON (SMA)
06:22 34.9950 -81.5953 249° West 333 383 13,300 1,500 Climbing FAA TRACON SMA TRACON (SMA)
06:23 34.9853 -81.6278 250° West 333 383 13,800 1,260 Climbing FAA TRACON SMA TRACON (SMA)
06:23 34.9753 -81.6600 249° West 331 381 14,200 1,380 Climbing FAA TRACON SMA TRACON (SMA)
06:23 34.9631 -81.7000 250° West 329 379 14,700 1,200 Climbing FAA TRACON SMA TRACON (SMA)
06:24 34.9561 -81.7239 250° West 329 379 15,000 1,260 Climbing FAA TRACON SMA TRACON (SMA)
06:25 34.9219 -81.8222 247° West 328 377 16,200 1,200 Climbing Atlanta Center
06:26 34.8736 -81.9122 237° Southwest 323 372 17,300 1,020 Climbing Atlanta Center
06:27 34.8189 -82.0019 233° Southwest 328 377 18,300 1,080 Climbing Atlanta Center
06:28 34.7661 -82.0969 236° Southwest 340 391 19,500 1,200 Climbing Atlanta Center
06:29 34.7133 -82.1892 235° Southwest 340 391 20,700 1,200 Climbing Atlanta Center
06:30 34.6625 -82.2836 237° Southwest 340 391 21,900 1,200 Climbing Atlanta Center
06:31 34.6094 -82.3731 234° Southwest 335 386 23,100 1,380 Climbing Atlanta Center
06:32 34.5564 -82.4650 235° Southwest 335 386 24,700 1,440 Climbing Atlanta Center
06:33 34.5114 -82.5439 235° Southwest 335 386 26,000 1,260 Climbing Atlanta Center
06:34 34.4561 -82.6406 235° Southwest 335 386 27,300 1,380 Climbing Atlanta Center
06:35 34.4072 -82.7244 235° Southwest 322 371 28,800 1,380 Climbing Atlanta Center
06:36 34.3600 -82.8058 235° Southwest 306 352 30,100 1,140 Climbing Atlanta Center
06:37 34.3167 -82.8742 232° Southwest 300 345 31,100 1,140 Climbing Atlanta Center
06:38 34.2778 -82.9503 238° Southwest 286 329 32,400 1,020 Climbing Atlanta Center
06:39 34.2347 -83.0261 236° Southwest 279 321 33,200 780 Climbing Atlanta Center
06:40 34.1872 -83.0994 232° Southwest 274 315 34,000 780 Climbing Atlanta Center
06:41 34.1439 -83.1753 235° Southwest 274 315 34,800 480 Climbing Atlanta Center
06:42 34.0986 -83.2511 234° Southwest 274 315 35,000 60 Climbing Atlanta Center
06:43 34.0469 -83.3392 235° Southwest 288 331 35,000  Level Atlanta Center
06:44 33.9994 -83.4250 236° Southwest 300 345 35,000 120 Level Atlanta Center
06:45 33.9456 -83.5131 234° Southwest 319 367 35,300 480 Climbing Atlanta Center
06:46 33.8936 -83.6008 235° Southwest 327 376 36,000 300 Climbing Atlanta Center
06:47 33.8417 -83.6886 235° Southwest 327 376 36,000  Level Atlanta Center
06:48 33.8211 -83.7964 257° West 324 373 36,000  Level Atlanta Center
06:49 33.8150 -83.9114 266° West 337 388 36,000  Level Atlanta Center
06:50 33.8089 -84.0289 266° West 354 407 36,000  Level Atlanta Center
06:51 33.8067 -84.1514 269° West 364 419 36,000  Level Atlanta Center
06:52 33.8003 -84.2714 266° West 364 419 36,000  Level Atlanta Center
06:53 33.7939 -84.3914 266° West 364 419 36,000  Level Atlanta Center
06:54 33.7914 -84.5111 269° West 364 419 36,000  Level Atlanta Center
06:55 33.7867 -84.6311 267° West 364 419 36,000  Level Atlanta Center
06:56 33.7839 -84.7461 268° West 358 412 36,000  Level Atlanta Center
06:57 33.7769 -84.8636 266° West 352 405 36,000  Level Atlanta Center
06:58 33.7739 -84.9786 268° West 352 405 36,000  Level Atlanta Center
06:59 33.7689 -85.0983 267° West 352 405 36,000  Level Atlanta Center
07:00 33.7867 -85.2186 280° West 361 415 36,000  Level Atlanta Center
07:01 33.8022 -85.3264 280° West 366 421 36,000  Level Atlanta Center
07:02 33.8217 -85.4442 281° West 366 421 36,000  Level Atlanta Center
07:03 33.8392 -85.5644 280° West 371 427 36,000  Level Atlanta Center
07:04 33.8583 -85.6847 281° West 371 427 36,000  Level Atlanta Center
07:05 33.8797 -85.8103 282° West 366 421 36,000  Level Atlanta Center
07:06 33.8967 -85.9333 279° West 360 414 36,000  Level Atlanta Center
07:07 33.9136 -86.0514 280° West 360 414 36,000  Level Atlanta Center
07:08 33.9322 -86.1719 281° West 365 420 36,000  Level Atlanta Center
07:09 33.9489 -86.2925 279° West 371 427 36,000  Level Atlanta Center
07:10 33.9811 -86.4997 281° West 393 452 36,000  Level Memphis Center
07:11 33.9953 -86.6192 278° West 383 441 36,000  Level Memphis Center
07:12 34.0136 -86.7411 280° West 383 441 36,000  Level Memphis Center
07:13 34.0317 -86.8633 280° West 383 441 36,000  Level Memphis Center
07:14 34.0517 -86.9878 281° West 383 441 36,000  Level Memphis Center
07:15 34.0675 -87.1100 279° West 377 434 36,000  Level Memphis Center
07:16 34.0853 -87.2297 280° West 371 427 36,000  Level Memphis Center
07:17 34.1008 -87.3522 279° West 371 427 36,000  Level Memphis Center
07:18 34.1183 -87.4794 279° West 371 427 36,000  Level Memphis Center
07:19 34.1336 -87.6019 279° West 376 433 36,000  Level Memphis Center
07:20 34.1553 -87.7292 282° West 376 433 36,000  Level Memphis Center
07:21 34.1681 -87.8392 278° West 376 433 36,000  Level Memphis Center
07:22 34.1850 -87.9667 279° West 382 440 36,000  Level Memphis Center
07:23 34.2019 -88.0919 279° West 388 447 36,000  Level Memphis Center
07:24 34.2233 -88.2369 280° West 395 455 36,000  Level Memphis Center
07:25 34.2400 -88.3647 279° West 395 455 36,000  Level Memphis Center
07:26 34.2608 -88.4950 281° West 395 455 36,000  Level Memphis Center
07:27 34.2503 -88.6158 264° West 364 419 36,000  Level Memphis Center
07:28 34.2036 -88.7172 241° Southwest 347 399 36,000  Level Memphis Center
07:29 34.1547 -88.8211 240° Southwest 347 399 36,000  Level Memphis Center
07:30 34.1081 -88.9197 240° Southwest 348 400 36,000  Level Memphis Center
07:31 34.0592 -89.0233 240° Southwest 358 412 36,000  Level Memphis Center
07:32 34.0100 -89.1242 240° Southwest 358 412 36,000  Level Memphis Center
07:33 33.9608 -89.2278 240° Southwest 358 412 36,000  Level Memphis Center
07:34 33.9158 -89.3233 240° Southwest 358 412 36,000  Level Memphis Center
07:35 33.8667 -89.4267 240° Southwest 358 412 36,000  Level Memphis Center
07:36 33.8192 -89.5322 242° Southwest 358 412 36,000  Level Memphis Center
07:37 33.7678 -89.6450 241° Southwest 358 412 36,000  Level Memphis Center
07:38 33.7225 -89.7453 242° Southwest 358 412 36,000  Level Memphis Center
07:39 33.6728 -89.8456 239° Southwest 358 412 36,000  Level Memphis Center
07:40 33.6294 -89.9356 240° Southwest 358 412 36,000  Level Memphis Center
07:41 33.5794 -90.0381 240° Southwest 358 412 36,000  Level Memphis Center
07:42 33.5317 -90.1378 240° Southwest 358 412 36,000  Level Memphis Center
07:43 33.4819 -90.2428 240° Southwest 358 412 36,000  Level Memphis Center
07:44 33.4192 -90.3272 228° Southwest 353 406 36,000  Level Memphis Center
07:45 33.3442 -90.4044 221° Southwest 353 406 36,000  Level Memphis Center
07:46 33.2711 -90.4814 221° Southwest 353 406 36,000  Level Memphis Center
07:47 33.1958 -90.5558 220° Southwest 358 412 36,000  Level Memphis Center
07:48 33.1206 -90.6325 220° Southwest 358 412 36,000  Level Memphis Center
07:49 33.0450 -90.7092 220° Southwest 358 412 36,000  Level Memphis Center
07:50 32.9633 -90.7931 221° Southwest 358 412 36,000  Level Memphis Center
07:51 32.8881 -90.8694 220° Southwest 358 412 36,000  Level Memphis Center
07:52 32.8125 -90.9481 221° Southwest 358 412 36,000  Level Memphis Center
07:53 32.7350 -91.0267 220° Southwest 358 412 36,000  Level Memphis Center
07:54 32.6592 -91.1050 221° Southwest 358 412 36,000  Level Memphis Center
07:56 32.5431 -91.2225 220° Southwest 370 426 36,000  Level Houston Center
07:57 32.4633 -91.3031 220° Southwest 376 433 36,000  Level Houston Center
07:58 32.3842 -91.3836 221° Southwest 376 433 36,000  Level Houston Center
07:59 32.3044 -91.4642 221° Southwest 376 433 36,000  Level Houston Center
08:00 32.2253 -91.5411 219° Southwest 371 427 36,000  Level Houston Center
08:01 32.1486 -91.6214 222° Southwest 370 426 36,000  Level Houston Center
08:02 32.0714 -91.6981 220° Southwest 367 422 36,000  Level Houston Center
08:03 31.9967 -91.7819 224° Southwest 371 427 36,000  Level Houston Center
08:04 31.9339 -91.8792 233° Southwest 374 430 36,000  Level Houston Center
08:05 31.8689 -91.9744 231° Southwest 372 428 36,000  Level Houston Center
08:06 31.8078 -92.0644 231° Southwest 368 423 36,000  Level Houston Center
08:07 31.7297 -92.1786 231° Southwest 374 430 36,000 -60 Level Houston Center
08:08 31.6644 -92.2742 231° Southwest 377 434 35,900  Descending Houston Center
08:09 31.5992 -92.3694 231° Southwest 377 434 36,000  Climbing Houston Center
08:10 31.5344 -92.4644 231° Southwest 376 433 36,000  Level Houston Center
08:11 31.4689 -92.5589 231° Southwest 376 433 36,000  Level Houston Center
08:12 31.4039 -92.6544 231° Southwest 376 433 36,000  Level Houston Center
08:13 31.3400 -92.7497 232° Southwest 374 430 36,000  Level Houston Center
08:14 31.2742 -92.8431 230° Southwest 374 430 36,000 -300 Level Houston Center
08:15 31.2083 -92.9361 230° Southwest 372 428 35,500 -900 Descending Houston Center
08:16 31.1403 -93.0347 231° Southwest 386 444 34,300 -1,200 Descending Houston Center
08:17 31.0686 -93.1358 230° Southwest 400 460 33,200 -1,140 Descending Houston Center
08:18 30.9994 -93.2347 231° Southwest 396 456 32,100 -1,200 Descending Houston Center
08:19 30.9286 -93.3344 230° Southwest 400 460 30,900 -1,200 Descending Houston Center
08:20 30.8567 -93.4375 231° Southwest 410 472 29,800 -1,140 Descending Houston Center
08:21 30.7839 -93.5397 230° Southwest 415 478 28,600 -1,380 Descending Houston Center
08:22 30.7133 -93.6403 231° Southwest 407 468 27,100 -1,980 Descending Houston Center
08:23 30.6261 -93.7639 231° Southwest 416 479 24,700 -2,460 Descending Houston Center
08:24 30.5533 -93.8647 230° Southwest 415 478 22,200 -2,520 Descending Houston Center
08:25 30.4869 -93.9589 231° Southwest 392 451 19,700 -2,640 Descending Houston Center
08:25 30.4544 -94.0058 231° Southwest 378 435 18,500 -2,700 Descending Houston Center
08:26 30.4194 -94.0539 230° Southwest 385 443 17,000 -2,820 Descending Houston Center
08:26 30.3956 -94.0864 230° Southwest 377 434 16,000 -2,460 Descending Houston Center
08:27 30.3544 -94.1444 231° Southwest 371 427 14,500 -2,400 Descending Houston Center
08:27 30.3328 -94.1747 230° Southwest 364 419 13,600 -2,220 Descending Houston Center
08:28 30.2914 -94.2328 230° Southwest 360 414 12,300 -1,380 Descending Houston Center
08:29 30.2497 -94.2900 230° Southwest 363 418 12,000 -300 Descending Houston Center
08:29 30.2272 -94.3219 231° Southwest 361 415 12,000  Level Houston Center
08:30 30.1933 -94.3772 235° Southwest 356 410 12,000 -120 Level Houston Center
08:30 30.1775 -94.4217 248° West 362 417 11,900 -360 Descending Houston Center
08:31 30.1506 -94.4989 248° West 360 414 11,600 -540 Descending Houston Center
08:31 30.1369 -94.5383 248° West 356 410 11,400 -600 Descending Houston Center
08:31 30.1242 -94.5725 247° West 352 405 11,200 -540 Descending Houston Center
08:32 30.1019 -94.6425 250° West 350 403 10,900 -540 Descending Houston Center
08:32 30.0894 -94.6711 243° Southwest 303 349 10,700 -900 Descending Houston Center
08:33 30.0728 -94.7264 251° West 287 330 10,000 -1,140 Descending Houston Center
08:33 30.0619 -94.7544 246° West 269 310 9,600 -1,440 Descending Houston Center
08:34 30.0447 -94.8056 249° West 268 308 8,600 -1,440 Descending Houston Center
08:35 30.0303 -94.8406 245° Southwest 258 297 8,000 -1,380 Descending Houston Center
08:36 30.0056 -94.9136 249° West 261 300 6,800 -1,320 Descending Houston Center
08:36 29.9919 -94.9572 250° West 255 293 5,900 -1,320 Descending Houston Center
08:37 29.9794 -94.9917 247° West 238 274 5,400 -1,200 Descending Houston Center
08:37 29.9783 -95.0292 268° West 237 273 4,700 -1,320 Descending Houston Center
08:38 29.9772 -95.0811 269° West 225 259 3,800 -1,200 Descending Houston Center
08:38 29.9778 -95.1019 272° West 230 265 3,500 -1,140 Descending Houston Center
08:39 29.9772 -95.1464 269° West 216 249 2,800 -1,500 Descending Houston Center